Location: Moscow
(55.7500°N, 37.5830°E)
Time: 10:15:32
(UTC+03:00)

Vanguard 1 Rocket - Pass Details

Date: 06 December 2021
Orbit: 651 x 4224 km, 34.3° (Epoch: 23 January)

Event Time Altitude Azimuth Distance (km) Brightness Sun altitude
Exits shadow 02:18:57 21° 136° (SE) 4,216 10.6 -50.2°
Drops below altitude 10° 02:28:00 10° 106° (ESE) 6,003 11.8 -49.3°
Sets 02:35:27 0° 94° (E) 7,655 12.5 -48.5°
